STEP CUBE LAB-II (52897 NORAD) Tracking and Keplerian Element Data

This shows tracking and keplerian element data for the satellite.

Feedback or suggestion? Click here.




ElementValue
Catalog52897
NameSTEP CUBE LAB-II
Epoch Orbit1308
Epoch Day270.11609453
Epoch Year2022
RAAN58.039
Inclination98.033
Eccentricity0.0008527
Argument of Perigee322.6072
Mean Anonmoly37.4524
Mean Motion14.58336921
Decay Rate5.26E-06
L11 52897U 22065D 22270.11609453 .00000526 00000+0 12317-3 0 9997
L22 52897 98.0330 58.0390 0008527 322.6072 37.4524 14.58336921 13084

Live tracking and technical data element details for STEP CUBE LAB-II (NORAD 52897). STEP CUBE LAB-II can be tracked NOW for your location showing map with azimuth and elevation plus other details from your city location.

Track the satellite on the map from your city or location and see movement details for azimuth, elevation, latitude, longitude, range, height, and movement on the map or in text.







IsCatalogInMostPopularTable: catalog: 52897, numindb: 5
Update: records affected: 1



GetName: 52897 STEP CUBE LAB-II

Hit Count: updated at: Thu, 06 Oct 2022 04:28:03 GMT